User: anonymous   Login
Location: Unspecified
(0.0000°N, 0.0000°E)
Time: 21:39:57
(UTC+00:00)
Language:

NNS O-32 - Orbit

View from above orbital plane
View from above orbital plane
View from above satellite
View from above satellite

Ground track
Ground track

The orbit data is extracted from the following two-line orbital elements,

1 19071U 88033B   18055.69388337 +.00000020 +00000-0 +21883-4 0  9994
2 19071 090.3650 282.4761 0188796 167.2569 258.1045 13.27603846444881
Epoch (UTC): 24 February 2018 16:39:11
Eccentricity: 0.0188796
inclination: 90.3650°
perigee height: 1013 km
apogee height: 1298 km
right ascension of ascending node: 282.4761°
argument of perigee: 167.2569°
revolutions per day: 13.27603846
mean anomaly at epoch: 258.1045°
orbit number at epoch: 44488

The dashed part of the orbit path shows where the satellite is in the earth's shadow,  

DLR